Home > Weather > Santorini > Past weeks

Flag for Greece Past Weather in Santorini, Greece — Yesterday and Last 2 Weeks

Now
82 °F

Passing clouds.


Feels Like: 83 °F
Forecast: 76 / 81 °F
Wind: 15 mph from Northwest

Location: Santorini Island

Current Time: Aug 29, 2016 at 10:35:58 AM

Latest Report: Aug 29, 2016 at 9:50 AM


Visibility: N/A

Pressure: 29.92 "Hg

Humidity: 48%

Dew Point: 61 °F

Location of SantoriniLocation

Past Weather in Santorini — Graph

°F

Santorini Temperature Yesterday

Maximum temperature yesterday: 81 °F (at 11:50 AM)
Minimum temperature yesterday: 73 °F (at 5:50 AM)
Average temperature yesterday: 77 °F

High & Low Weather Summary for the Past Weeks

 TemperatureHumidityPressure
High93 °F (Aug 18, 2:20 PM)83% (Aug 19, 3:50 AM)29.98 "Hg (Aug 19, 3:50 AM)
Low72 °F (Aug 15, 4:50 AM)22% (Aug 26, 3:50 AM)29.71 "Hg (Aug 19, 6:20 AM)
Average80 °F61%29.85 "Hg
* Reported Aug 14 9:20 AM — Aug 29 9:20 AM, Santorini, Weather by CustomWeather, © 2016

Note: Actual official high and low records may vary slightly from our data, if they occured in-between our weather recording intervals... More about our weather records

Advertising

Santorini Weather History for the Previous 24 Hours

Scroll right to see more
 ConditionsComfort  
Time TempWeatherWind HumidityBarometerVisibility
9:20 AM
Mon, Aug 29
81 °FPassing clouds.14 mph51%29.89 "HgN/A
8:50 AM81 °FPassing clouds.12 mph54%29.89 "HgN/A
8:20 AM79 °FPassing clouds.10 mph61%29.89 "HgN/A
7:50 AM77 °FPassing clouds.10 mph65%29.89 "HgN/A
7:20 AM75 °FPassing clouds.10 mph69%29.89 "HgN/A
6:50 AM75 °FPassing clouds.12 mph65%29.89 "HgN/A
6:20 AM75 °FPassing clouds.12 mph65%29.89 "HgN/A
5:50 AM75 °FPassing clouds.12 mph65%29.89 "HgN/A
5:20 AM75 °FClear.14 mph69%29.89 "Hg10 mi
4:20 AM75 °FClear.12 mph69%29.89 "Hg10 mi
3:50 AM75 °FClear.12 mph69%29.89 "Hg10 mi
3:20 AM75 °FClear.12 mph69%29.89 "Hg10 mi
2:50 AM75 °FClear.13 mph69%29.92 "Hg10 mi
2:20 AM75 °FClear.12 mph65%29.92 "Hg10 mi
1:50 AM75 °FClear.12 mph65%29.92 "Hg10 mi
1:20 AM75 °FClear.12 mph65%29.92 "Hg10 mi
12:50 AM75 °FClear.12 mph65%29.95 "Hg10 mi
12:20 AM75 °FClear.10 mph61%29.95 "Hg10 mi
11:50 PM
Sun, Aug 28
75 °FClear.10 mph61%29.95 "Hg10 mi
11:20 PM75 °FClear.10 mph61%29.95 "Hg10 mi
10:50 PM75 °FClear.9 mph61%29.95 "Hg10 mi
9:20 PM75 °FClear.15 mph65%29.95 "Hg10 mi
8:50 PM75 °FClear.15 mph65%29.95 "Hg10 mi
8:20 PM75 °FSunny.15 mph61%29.95 "Hg10 mi
7:50 PM77 °FSunny.15 mph57%29.95 "Hg10 mi
7:20 PM77 °FPassing clouds.21 mph57%29.92 "HgN/A
6:50 PM79 °FPassing clouds.18 mph58%29.92 "HgN/A
6:20 PM79 °FPassing clouds.16 mph58%29.92 "HgN/A
5:50 PM79 °FPassing clouds.15 mph65%29.92 "HgN/A
5:20 PM79 °FScattered clouds.17 mph58%29.92 "HgN/A
4:20 PM81 °FScattered clouds.17 mph54%29.95 "HgN/A
3:50 PM81 °FScattered clouds.15 mph54%29.95 "HgN/A
3:20 PM81 °FScattered clouds.18 mph58%29.95 "HgN/A
2:50 PM81 °FScattered clouds.17 mph58%29.95 "HgN/A
2:20 PM81 °FScattered clouds.17 mph54%29.95 "HgN/A
1:50 PM81 °FScattered clouds.17 mph54%29.95 "HgN/A
1:20 PM81 °FScattered clouds.17 mph54%29.95 "HgN/A
12:50 PM81 °FPassing clouds.18 mph58%29.95 "HgN/A
12:20 PM81 °FPassing clouds.18 mph58%29.95 "HgN/A
11:50 AM81 °FPassing clouds.18 mph58%29.95 "HgN/A
11:20 AM79 °FPassing clouds.18 mph61%29.95 "HgN/A
10:50 AM79 °FPassing clouds.16 mph61%29.95 "HgN/A
10:20 AM79 °FPassing clouds.16 mph61%29.95 "HgN/A
Weather by CustomWeather, © 2016

See weather overviewHow to use our weather pages